Back to catalog

SHIYAN 2

SY-2

AliveScienceSSO
NORAD 28479·PAYLOAD·🇨🇳 China

Launched Nov 18, 2004 from Xichang Satellite Launch Center

Loading…

Next Passes (next 24 hours)

TLE

FreshSource: Space-Track

Epoch: Sep 14, 2026, 11:39 UTC

1 28479U 04046A   26257.48560587  .00000534  00000-0  10476-3 0  9992
2 28479  98.0600 265.9554 0009129 346.1445  13.9508 14.66633934162896

Track SHIYAN 2 in real time with AllMySat

Download on the App Store